When you browse on this site, cookies collect data to enhance your experience and personalize the content and advertising you see.
Visit our Privacy Policy to learn more. By continuing to use the site, you agree to this use of cookies and data.
  • în România
  • Lista ţărilor
  • Pe 7 zile
  • Temperatura apei
  • Hartă satelitară
  • Meteo pe hartă
  • Widget-uri
  • user-avatar
    Intrare

    Meteo pe oră la Arne

    Astăzi, 19 Februarie, Marţi

    Timp Temperatura Precipitaţii Vânt Presiune Umiditate
    00:00 +2°C° 0 mm 2 m/s 684 mmHg 71%
    01:00 +2°C° 0 mm 2 m/s 684 mmHg 67%
    02:00 +2°C° 0 mm 2 m/s 684 mmHg 69%
    03:00 +1°C° 0 mm 2 m/s 684 mmHg 71%
    04:00 +1°C° 0 mm 2 m/s 684 mmHg 72%
    05:00 +1°C° 0 mm 2 m/s 684 mmHg 73%
    06:00 -1°C° 0 mm 2 m/s 684 mmHg 74%
    07:00 -1°C° 0 mm 2 m/s 684 mmHg 75%
    08:00 +3°C° 0 mm 1 m/s 685 mmHg 74%
    09:00 +5°C° 0 mm 1 m/s 685 mmHg 73%
    10:00 +5°C° 0 mm 0 m/s 685 mmHg 73%
    11:00 +7°C° 0 mm 1 m/s 685 mmHg 71%
    12:00 +8°C° 0 mm 1 m/s 685 mmHg 69%
    13:00 +9°C° 0 mm 1 m/s 685 mmHg 67%
    14:00 +8°C° 0 mm 0 m/s 685 mmHg 69%
    15:00 +8°C° 0 mm 0 m/s 685 mmHg 71%
    16:00 +8°C° 0 mm 0 m/s 685 mmHg 72%
    17:00 +7°C° 0 mm 1 m/s 685 mmHg 76%
    18:00 +6°C° 0 mm 1 m/s 685 mmHg 79%
    19:00 +4°C° 0 mm 1 m/s 685 mmHg 83%
    20:00 +3°C° 0 mm 1 m/s 685 mmHg 81%
    21:00 +3°C° 0 mm 1 m/s 685 mmHg 79%
    22:00 +3°C° 0 mm 1 m/s 685 mmHg 78%
    23:00 +2°C° 0 mm 1 m/s 685 mmHg 77%

    Mâine, 20 Februarie, Miercuri

    Timp Temperatura Precipitaţii Vânt Presiune Umiditate
    00:00 +2°C° 0 mm 1 m/s 685 mmHg 76%
    01:00 +2°C° 0 mm 1 m/s 686 mmHg 75%
    02:00 +2°C° 0 mm 1 m/s 685 mmHg 74%
    03:00 +2°C° 0 mm 1 m/s 685 mmHg 74%
    04:00 +1°C° 0 mm 1 m/s 685 mmHg 74%
    05:00 +1°C° 0 mm 1 m/s 685 mmHg 74%
    06:00 +1°C° 0 mm 1 m/s 685 mmHg 73%
    07:00 +1°C° 0 mm 1 m/s 686 mmHg 73%
    08:00 +3°C° 0 mm 1 m/s 686 mmHg 71%
    09:00 +4°C° 0 mm 0 m/s 687 mmHg 70%
    10:00 +6°C° 0 mm 0 m/s 687 mmHg 68%
    11:00 +7°C° 0 mm 0 m/s 687 mmHg 66%
    12:00 +8°C° 0 mm 0 m/s 687 mmHg 64%
    13:00 +9°C° 0 mm 0 m/s 688 mmHg 62%
    14:00 +9°C° 0 mm 0 m/s 688 mmHg 63%
    15:00 +9°C° 0 mm 0 m/s 687 mmHg 65%
    16:00 +9°C° 0 mm 0 m/s 687 mmHg 66%
    17:00 +7°C° 0 mm 0 m/s 687 mmHg 70%
    18:00 +6°C° 0 mm 1 m/s 687 mmHg 73%
    19:00 +4°C° 0 mm 1 m/s 687 mmHg 77%
    20:00 +4°C° 0 mm 1 m/s 688 mmHg 76%
    21:00 +3°C° 0 mm 1 m/s 688 mmHg 75%
    22:00 +3°C° 0 mm 1 m/s 688 mmHg 73%
    23:00 +3°C° 0 mm 1 m/s 688 mmHg 72%

    Poimâine, 21 Februarie, Joi

    Timp Temperatura Precipitaţii Vânt Presiune Umiditate
    00:00 +3°C° 0 mm 1 m/s 688 mmHg 70%
    01:00 +3°C° 0 mm 1 m/s 688 mmHg 68%
    02:00 +2°C° 0 mm 1 m/s 688 mmHg 68%
    03:00 +2°C° 0 mm 1 m/s 688 mmHg 67%
    04:00 +2°C° 0 mm 1 m/s 688 mmHg 67%
    05:00 +2°C° 0 mm 1 m/s 689 mmHg 67%
    06:00 +2°C° 0 mm 1 m/s 689 mmHg 67%
    07:00 +2°C° 0 mm 1 m/s 689 mmHg 67%
    08:00 +4°C° 0 mm 1 m/s 690 mmHg 66%
    09:00 +5°C° 0 mm 0 m/s 690 mmHg 65%
    10:00 +6°C° 0 mm 0 m/s 690 mmHg 64%
    11:00 +8°C° 0 mm 0 m/s 691 mmHg 63%
    12:00 +9°C° 0 mm 0 m/s 691 mmHg 61%
    13:00 +10°C° 0 mm 0 m/s 691 mmHg 60%
    14:00 +10°C° 0 mm 0 m/s 691 mmHg 61%
    15:00 +10°C° 0 mm 0 m/s 691 mmHg 62%
    16:00 +9°C° 0 mm 0 m/s 691 mmHg 63%
    17:00 +8°C° 0 mm 0 m/s 691 mmHg 67%
    18:00 +7°C° 0 mm 1 m/s 691 mmHg 70%
    19:00 +5°C° 0 mm 1 m/s 691 mmHg 74%
    20:00 +5°C° 0 mm 1 m/s 691 mmHg 73%
    21:00 +4°C° 0 mm 1 m/s 692 mmHg 73%
    22:00 +4°C° 0 mm 1 m/s 692 mmHg 73%
    23:00 +4°C° 0 mm 1 m/s 692 mmHg 73%

    22 Februarie, Vineri

    Timp Temperatura Precipitaţii Vânt Presiune Umiditate
    00:00 +3°C° 0 mm 1 m/s 692 mmHg 73%
    01:00 +3°C° 0 mm 1 m/s 692 mmHg 73%
    02:00 +3°C° 0 mm 1 m/s 692 mmHg 73%
    03:00 +3°C° 0 mm 1 m/s 692 mmHg 72%
    04:00 +3°C° 0 mm 1 m/s 692 mmHg 72%
    05:00 +2°C° 0 mm 1 m/s 692 mmHg 72%
    06:00 +2°C° 0 mm 1 m/s 692 mmHg 72%
    07:00 +2°C° 0 mm 1 m/s 692 mmHg 71%
    08:00 +4°C° 0 mm 1 m/s 692 mmHg 70%
    09:00 +5°C° 0 mm 1 m/s 692 mmHg 68%
    10:00 +7°C° 0 mm 1 m/s 693 mmHg 66%
    11:00 +8°C° 0 mm 1 m/s 693 mmHg 66%
    12:00 +8°C° 0 mm 2 m/s 693 mmHg 66%
    13:00 +9°C° 0 mm 2 m/s 693 mmHg 67%
    14:00 +9°C° 0 mm 2 m/s 692 mmHg 68%
    15:00 +9°C° 0 mm 2 m/s 692 mmHg 69%
    16:00 +9°C° 0 mm 2 m/s 692 mmHg 70%
    17:00 +7°C° 0 mm 2 m/s 692 mmHg 75%
    18:00 +6°C° 0 mm 2 m/s 692 mmHg 80%
    19:00 +5°C° 0 mm 1 m/s 692 mmHg 85%
    20:00 +5°C° 0 mm 1 m/s 692 mmHg 85%
    21:00 +4°C° 0 mm 1 m/s 692 mmHg 84%
    22:00 +4°C° 0 mm 1 m/s 692 mmHg 83%
    23:00 +4°C° 0 mm 1 m/s 692 mmHg 82%

    23 Februarie, Sâmbătă

    Timp Temperatura Precipitaţii Vânt Presiune Umiditate
    00:00 +3°C° 0 mm 1 m/s 692 mmHg 81%
    01:00 +3°C° 0 mm 1 m/s 692 mmHg 80%
    02:00 +3°C° 0 mm 1 m/s 691 mmHg 79%
    03:00 +3°C° 0 mm 1 m/s 691 mmHg 78%
    04:00 +3°C° 0 mm 1 m/s 691 mmHg 77%
    05:00 +3°C° 0 mm 1 m/s 691 mmHg 77%
    06:00 +3°C° 0 mm 1 m/s 691 mmHg 77%
    07:00 +3°C° 0 mm 1 m/s 691 mmHg 77%
    08:00 +4°C° 0 mm 1 m/s 691 mmHg 76%
    09:00 +5°C° 0 mm 1 m/s 691 mmHg 76%
    10:00 +6°C° 0 mm 1 m/s 692 mmHg 75%
    11:00 +8°C° 0 mm 1 m/s 692 mmHg 71%
    12:00 +9°C° 0 mm 1 m/s 692 mmHg 67%
    13:00 +10°C° 0 mm 1 m/s 692 mmHg 64%
    14:00 +10°C° 0 mm 1 m/s 692 mmHg 65%
    15:00 +10°C° 0 mm 1 m/s 691 mmHg 67%
    16:00 +9°C° 0 mm 2 m/s 691 mmHg 68%
    17:00 +8°C° 0 mm 1 m/s 691 mmHg 73%
    18:00 +6°C° 0 mm 1 m/s 691 mmHg 78%
    19:00 +5°C° 0 mm 1 m/s 691 mmHg 83%
    20:00 +4°C° 0 mm 1 m/s 691 mmHg 82%
    21:00 +4°C° 0 mm 1 m/s 691 mmHg 81%
    22:00 +4°C° 0 mm 1 m/s 691 mmHg 80%
    23:00 +3°C° 0 mm 1 m/s 691 mmHg 80%

    24 Februarie, Duminică

    Timp Temperatura Precipitaţii Vânt Presiune Umiditate
    00:00 +3°C° 0 mm 1 m/s 690 mmHg 80%
    01:00 +3°C° 0 mm 1 m/s 690 mmHg 79%
    02:00 +3°C° 0 mm 1 m/s 690 mmHg 80%
    03:00 +2°C° 0 mm 1 m/s 690 mmHg 80%
    04:00 +2°C° 0 mm 1 m/s 690 mmHg 80%
    05:00 +2°C° 0 mm 1 m/s 690 mmHg 80%
    06:00 +2°C° 0 mm 1 m/s 690 mmHg 80%
    07:00 +2°C° 0 mm 1 m/s 690 mmHg 81%
    08:00 +3°C° 0 mm 1 m/s 690 mmHg 77%
    09:00 +5°C° 0 mm 1 m/s 690 mmHg 73%
    10:00 +7°C° 0 mm 1 m/s 691 mmHg 70%
    11:00 +8°C° 0 mm 1 m/s 691 mmHg 67%
    12:00 +8°C° 0 mm 2 m/s 691 mmHg 64%
    13:00 +9°C° 0 mm 2 m/s 691 mmHg 61%
    14:00 +9°C° 0 mm 2 m/s 690 mmHg 62%
    15:00 +9°C° 0 mm 2 m/s 690 mmHg 63%
    16:00 +9°C° 0 mm 2 m/s 690 mmHg 63%
    17:00 +7°C° 0 mm 2 m/s 690 mmHg 69%
    18:00 +6°C° 0 mm 1 m/s 690 mmHg 74%
    19:00 +5°C° 0 mm 1 m/s 690 mmHg 79%
    20:00 +4°C° 0 mm 1 m/s 690 mmHg 79%
    21:00 +4°C° 0 mm 1 m/s 690 mmHg 78%
    22:00 +3°C° 0 mm 1 m/s 690 mmHg 77%
    23:00 +3°C° 0 mm 1 m/s 690 mmHg 76%
    Arată mai mult